TimeEST,TemperatureF,Dew PointF,Humidity,Sea Level PressureIn,VisibilityMPH,Wind Direction,Wind SpeedMPH,Gust SpeedMPH,PrecipitationIn,Events,Conditions,WindDirDegrees,DateUTC
12:15 AM,37.9,30.2,74,30.13,10.0,West,6.9,-,N/A,,Clear,280,2012-12-05 05:15:00
12:35 AM,37.0,30.6,77,30.15,10.0,West,9.2,-,N/A,,Clear,280,2012-12-05 05:35:00
12:55 AM,36.7,29.8,76,30.16,10.0,West,9.2,16.1,N/A,,Clear,280,2012-12-05 05:55:00
1:15 AM,36.9,29.1,74,30.17,10.0,WNW,10.4,-,N/A,,Mostly Cloudy,290,2012-12-05 06:15:00
1:35 AM,36.1,28.8,75,30.18,10.0,WNW,10.4,16.1,N/A,,Mostly Cloudy,290,2012-12-05 06:35:00
1:55 AM,35.6,28.4,75,30.20,10.0,WNW,9.2,-,N/A,,Mostly Cloudy,290,2012-12-05 06:55:00
2:15 AM,34.9,27.3,74,30.21,10.0,NW,9.2,-,N/A,,Mostly Cloudy,310,2012-12-05 07:15:00
2:55 AM,32.9,25.0,73,30.23,10.0,NW,8.1,-,N/A,,Scattered Clouds,320,2012-12-05 07:55:00
3:15 AM,32.0,23.0,69,30.24,10.0,NW,10.4,-,N/A,,Scattered Clouds,320,2012-12-05 08:15:00
3:35 AM,31.6,22.8,70,30.25,10.0,NNW,6.9,-,N/A,,Clear,330,2012-12-05 08:35:00
3:55 AM,31.1,21.9,69,30.26,10.0,NW,11.5,17.3,N/A,,Clear,310,2012-12-05 08:55:00
4:15 AM,30.2,21.4,70,30.27,10.0,NW,9.2,-,N/A,,Clear,320,2012-12-05 09:15:00
4:35 AM,30.0,21.2,70,30.28,10.0,NW,10.4,-,N/A,,Clear,310,2012-12-05 09:35:00
4:55 AM,29.8,21.2,70,30.29,10.0,WNW,8.1,-,N/A,,Clear,300,2012-12-05 09:55:00
5:15 AM,29.7,21.0,70,30.29,10.0,WNW,6.9,-,N/A,,Scattered Clouds,300,2012-12-05 10:15:00
5:35 AM,30.0,21.0,69,30.30,10.0,NW,9.2,-,N/A,,Mostly Cloudy,310,2012-12-05 10:35:00
5:55 AM,30.7,21.2,68,30.31,10.0,NW,9.2,-,N/A,,Overcast,310,2012-12-05 10:55:00
6:15 AM,30.9,19.4,62,30.32,10.0,NW,11.5,19.6,N/A,,Overcast,320,2012-12-05 11:15:00
6:35 AM,31.1,19.4,62,30.33,10.0,NW,11.5,-,N/A,,Overcast,310,2012-12-05 11:35:00
6:55 AM,31.1,19.9,63,30.34,10.0,WNW,9.2,-,N/A,,Overcast,300,2012-12-05 11:55:00
7:15 AM,31.1,20.1,64,30.34,10.0,West,9.2,-,N/A,,Overcast,280,2012-12-05 12:15:00
7:35 AM,31.1,19.9,63,30.34,10.0,WNW,8.1,-,N/A,,Overcast,290,2012-12-05 12:35:00
7:55 AM,31.1,20.3,64,30.34,10.0,West,9.2,-,N/A,,Overcast,270,2012-12-05 12:55:00
9:35 AM,32.9,20.8,61,30.38,10.0,WNW,10.4,-,N/A,,Clear,290,2012-12-05 14:35:00
9:55 AM,33.4,20.8,60,30.39,10.0,WNW,9.2,-,N/A,,Clear,290,2012-12-05 14:55:00
10:15 AM,34.2,21.4,60,30.39,10.0,NW,12.7,17.3,N/A,,Clear,320,2012-12-05 15:15:00
10:35 AM,34.7,22.1,60,30.39,10.0,NNW,10.4,-,N/A,,Clear,330,2012-12-05 15:35:00
10:55 AM,34.9,22.5,61,30.39,10.0,NNW,10.4,17.3,N/A,,Clear,330,2012-12-05 15:55:00
11:15 AM,34.9,22.5,61,30.39,10.0,NNW,11.5,18.4,N/A,,Scattered Clouds,340,2012-12-05 16:15:00
11:35 AM,35.8,23.0,60,30.39,10.0,NNW,13.8,-,N/A,,Scattered Clouds,330,2012-12-05 16:35:00
11:55 AM,35.6,22.6,59,30.39,10.0,NW,12.7,16.1,N/A,,Mostly Cloudy,320,2012-12-05 16:55:00
12:15 PM,34.5,21.9,60,30.39,10.0,North,8.1,-,N/A,,Mostly Cloudy,360,2012-12-05 17:15:00
12:35 PM,36.0,23.2,60,30.38,10.0,NW,9.2,-,N/A,,Scattered Clouds,320,2012-12-05 17:35:00
12:55 PM,35.6,22.8,60,30.37,10.0,North,10.4,-,N/A,,Scattered Clouds,360,2012-12-05 17:55:00
1:15 PM,35.8,22.8,59,30.37,10.0,North,8.1,16.1,N/A,,Clear,350,2012-12-05 18:15:00
1:36 PM,35.8,22.8,59,30.37,10.0,North,9.2,-,N/A,,Clear,10,2012-12-05 18:36:00
1:55 PM,35.6,23.4,61,30.37,10.0,North,5.8,-,N/A,,Clear,360,2012-12-05 18:55:00
2:15 PM,35.8,23.2,60,30.37,10.0,North,8.1,-,N/A,,Clear,350,2012-12-05 19:15:00
2:35 PM,35.8,22.8,59,30.37,10.0,North,4.6,-,N/A,,Clear,360,2012-12-05 19:35:00
2:55 PM,35.8,22.8,59,30.37,10.0,Calm,Calm,-,N/A,,Clear,0,2012-12-05 19:55:00
3:15 PM,35.8,22.5,58,30.37,10.0,NNE,6.9,-,N/A,,Clear,20,2012-12-05 20:15:00
3:35 PM,35.1,22.1,59,30.38,10.0,Calm,Calm,-,N/A,,Clear,0,2012-12-05 20:35:00
3:55 PM,35.2,21.9,58,30.38,10.0,NE,3.5,-,N/A,,Clear,40,2012-12-05 20:55:00
4:15 PM,34.9,22.1,60,30.38,10.0,Calm,Calm,-,N/A,,Clear,0,2012-12-05 21:15:00
4:35 PM,34.7,21.9,60,30.38,10.0,Calm,Calm,-,N/A,,Clear,0,2012-12-05 21:35:00
4:55 PM,33.6,22.1,63,30.37,10.0,ENE,4.6,-,N/A,,Clear,70,2012-12-05 21:55:00
5:16 PM,33.1,22.1,64,30.37,10.0,Calm,Calm,-,N/A,,Clear,0,2012-12-05 22:16:00
5:35 PM,31.8,22.5,68,30.37,10.0,Calm,Calm,-,N/A,,Clear,0,2012-12-05 22:35:00
5:55 PM,30.9,22.8,72,30.37,10.0,Calm,Calm,-,N/A,,Clear,0,2012-12-05 22:55:00
6:15 PM,28.6,23.0,80,30.37,10.0,Calm,Calm,-,N/A,,Clear,0,2012-12-05 23:15:00
6:35 PM,28.0,23.2,82,30.37,10.0,Calm,Calm,-,N/A,,Clear,0,2012-12-05 23:35:00
6:55 PM,29.1,24.6,83,30.38,10.0,Calm,Calm,-,N/A,,Clear,0,2012-12-05 23:55:00
7:15 PM,28.6,24.8,86,30.37,10.0,Calm,Calm,-,N/A,,Clear,0,2012-12-06 00:15:00
7:35 PM,27.3,23.5,86,30.37,10.0,Calm,Calm,-,N/A,,Clear,0,2012-12-06 00:35:00
7:55 PM,27.3,24.3,88,30.37,10.0,Calm,Calm,-,N/A,,Clear,0,2012-12-06 00:55:00
8:15 PM,27.0,24.4,90,30.37,10.0,ESE,3.5,-,N/A,,Clear,110,2012-12-06 01:15:00
8:35 PM,28.0,23.5,83,30.37,10.0,Calm,Calm,-,N/A,,Clear,0,2012-12-06 01:35:00
8:56 PM,26.8,22.6,84,30.37,10.0,Calm,Calm,-,N/A,,Clear,0,2012-12-06 01:56:00
9:15 PM,25.7,22.6,88,30.36,10.0,Calm,Calm,-,N/A,,Clear,0,2012-12-06 02:15:00
9:35 PM,25.5,22.8,89,30.37,10.0,Calm,Calm,-,N/A,,Clear,0,2012-12-06 02:35:00
9:55 PM,25.5,22.6,89,30.36,10.0,Calm,Calm,-,N/A,,Clear,0,2012-12-06 02:55:00
10:15 PM,25.7,23.4,91,30.37,10.0,ESE,3.5,-,N/A,,Clear,110,2012-12-06 03:15:00
10:35 PM,26.4,23.4,88,30.37,10.0,ESE,3.5,-,N/A,,Clear,110,2012-12-06 03:35:00
10:55 PM,26.2,22.8,87,30.36,10.0,ESE,3.5,-,N/A,,Clear,110,2012-12-06 03:55:00
11:15 PM,26.1,22.6,87,30.35,10.0,ESE,5.8,-,N/A,,Clear,110,2012-12-06 04:15:00
11:35 PM,26.2,23.4,89,30.34,10.0,ESE,5.8,-,N/A,,Clear,110,2012-12-06 04:35:00
11:55 PM,26.8,23.7,88,30.34,10.0,ESE,5.8,-,N/A,,Clear,110,2012-12-06 04:55:00